Location: Unspecified
(49.2170°N, 0.0000°E)
Time: 12:23:11
(UTC+00:00)

Vanguard 3 - Pass Details

Date: 02 July 2019
Orbit: 507 x 3264 km, 33.4° (Epoch: 21 July)

Event Time Altitude Azimuth Distance (km) Brightness Sun altitude
Rises 06:06:59 0° 200° (SSW) 7,084 11.6 17.7°
Reaches altitude 10° 06:13:23 10° 187° (S) 6,185 11.5 18.7°
Maximum altitude 06:26:26 22° 146° (SE) 5,011 11.6 20.8°
Drops below altitude 10° 06:37:51 10° 103° (ESE) 5,397 12.7 22.6°
Sets 06:42:46 0° 90° (E) 6,015 13.0 23.4°
